Location: Cluj-Napoca
(46.7712°N, 23.6236°E)
Time: 07:02:50
(UTC+03:00)

ISS - Pass Details

Date: 28 March 2020
Orbit: 417 x 423 km, 51.6° (Epoch: 29 March)

Event Time Altitude Azimuth Distance (km) Brightness Sun altitude
Rises 20:55:35 0° 294° (WNW) 2,362 1.6 -21.2°
Reaches altitude 10° 20:57:44 10° 300° (WNW) 1,498 0.2 -21.5°
Enters shadow 21:00:42 45° 357° (N) 583 -2.9 -22.0°
